TimeCST,TemperatureF,Dew PointF,Humidity,Sea Level PressureIn,VisibilityMPH,Wind Direction,Wind SpeedMPH,Gust SpeedMPH,PrecipitationIn,Events,Conditions,WindDirDegrees,DateUTC
12:15 AM,33.1,30.9,92,30.41,10.0,WNW,4.6,-,N/A,,Clear,290,2013-12-26 06:15:00
12:35 AM,32.2,30.0,92,30.41,10.0,WNW,4.6,-,N/A,,Clear,290,2013-12-26 06:35:00
12:55 AM,31.8,29.3,90,30.41,10.0,WNW,4.6,-,N/A,,Clear,290,2013-12-26 06:55:00
1:15 AM,31.6,29.3,91,30.41,10.0,Calm,Calm,-,N/A,,Clear,0,2013-12-26 07:15:00
1:35 AM,32.0,29.3,90,30.41,10.0,WNW,3.5,-,N/A,,Clear,300,2013-12-26 07:35:00
1:55 AM,31.1,28.4,90,30.41,10.0,Calm,Calm,-,N/A,,Clear,0,2013-12-26 07:55:00
2:15 AM,31.6,29.1,90,30.42,10.0,Calm,Calm,-,N/A,,Clear,0,2013-12-26 08:15:00
2:35 AM,30.9,28.8,92,30.41,10.0,Calm,Calm,-,N/A,,Clear,0,2013-12-26 08:35:00
2:55 AM,30.9,29.5,94,30.41,10.0,Calm,Calm,-,N/A,,Clear,0,2013-12-26 08:55:00
3:15 AM,30.9,28.6,91,30.41,10.0,Calm,Calm,-,N/A,,Clear,0,2013-12-26 09:15:00
3:35 AM,30.4,28.9,94,30.41,10.0,Calm,Calm,-,N/A,,Clear,0,2013-12-26 09:35:00
3:55 AM,30.2,28.0,92,30.40,10.0,Calm,Calm,-,N/A,,Clear,0,2013-12-26 09:55:00
4:15 AM,30.2,28.6,94,30.39,10.0,Calm,Calm,-,N/A,,Clear,0,2013-12-26 10:15:00
4:35 AM,29.1,28.0,96,30.39,10.0,Calm,Calm,-,N/A,,Clear,0,2013-12-26 10:35:00
4:55 AM,30.7,28.0,90,30.38,10.0,Calm,Calm,-,N/A,,Clear,0,2013-12-26 10:55:00
5:15 AM,28.0,25.9,92,30.39,10.0,Calm,Calm,-,N/A,,Clear,0,2013-12-26 11:15:00
5:35 AM,27.9,25.9,92,30.39,10.0,Calm,Calm,-,N/A,,Clear,0,2013-12-26 11:35:00
5:55 AM,28.4,26.4,92,30.39,10.0,Calm,Calm,-,N/A,,Clear,0,2013-12-26 11:55:00
6:15 AM,29.1,26.6,90,30.39,10.0,NW,3.5,-,N/A,,Clear,320,2013-12-26 12:15:00
6:35 AM,29.8,27.0,89,30.39,10.0,NW,5.8,-,N/A,,Clear,310,2013-12-26 12:35:00
6:55 AM,28.6,25.7,89,30.40,10.0,NW,4.6,-,N/A,,Clear,310,2013-12-26 12:55:00
7:15 AM,30.4,26.6,86,30.40,10.0,NNW,6.9,-,N/A,,Clear,330,2013-12-26 13:15:00
7:35 AM,30.7,26.1,83,30.41,10.0,NW,4.6,-,N/A,,Clear,320,2013-12-26 13:35:00
7:55 AM,29.5,25.2,84,30.40,10.0,Calm,Calm,-,N/A,,Clear,0,2013-12-26 13:55:00
8:15 AM,31.8,27.3,83,30.40,10.0,NNW,5.8,-,N/A,,Clear,330,2013-12-26 14:15:00
8:35 AM,33.1,28.9,85,30.41,10.0,Calm,Calm,-,N/A,,Clear,0,2013-12-26 14:35:00
8:55 AM,35.4,30.6,82,30.42,10.0,North,4.6,-,N/A,,Clear,360,2013-12-26 14:55:00
9:15 AM,37.4,31.8,80,30.42,10.0,North,6.9,-,N/A,,Clear,360,2013-12-26 15:15:00
9:35 AM,39.9,31.8,73,30.42,10.0,North,6.9,-,N/A,,Clear,10,2013-12-26 15:35:00
9:55 AM,41.4,32.2,70,30.42,10.0,NNE,6.9,-,N/A,,Clear,20,2013-12-26 15:55:00
10:15 AM,42.8,30.2,61,30.43,10.0,North,5.8,-,N/A,,Clear,10,2013-12-26 16:15:00
10:35 AM,43.0,28.6,57,30.43,10.0,Calm,Calm,-,N/A,,Clear,0,2013-12-26 16:35:00
10:55 AM,44.6,26.2,49,30.42,10.0,NE,4.6,-,N/A,,Clear,50,2013-12-26 16:55:00
11:15 AM,46.2,26.1,45,30.42,10.0,Calm,Calm,-,N/A,,Clear,0,2013-12-26 17:15:00
11:35 AM,47.1,25.3,43,30.42,10.0,Calm,Calm,-,N/A,,Clear,0,2013-12-26 17:35:00
11:55 AM,48.4,25.5,41,30.41,10.0,Calm,Calm,-,N/A,,Clear,0,2013-12-26 17:55:00
12:15 PM,49.5,25.3,39,30.39,10.0,Calm,Calm,-,N/A,,Clear,0,2013-12-26 18:15:00
12:35 PM,50.9,21.2,31,30.37,10.0,ENE,4.6,-,N/A,,Clear,70,2013-12-26 18:35:00
12:55 PM,51.1,21.7,32,30.36,10.0,Calm,Calm,-,N/A,,Clear,0,2013-12-26 18:55:00
1:15 PM,51.8,21.7,31,30.35,10.0,Calm,Calm,-,N/A,,Clear,0,2013-12-26 19:15:00
1:35 PM,51.8,21.4,30,30.34,10.0,SE,3.5,-,N/A,,Clear,130,2013-12-26 19:35:00
1:55 PM,50.7,21.6,32,30.34,10.0,Calm,Calm,-,N/A,,Clear,0,2013-12-26 19:55:00
2:15 PM,51.8,21.6,31,30.32,10.0,Calm,Calm,-,N/A,,Clear,0,2013-12-26 20:15:00
2:35 PM,53.1,21.2,29,30.32,10.0,Calm,Calm,-,N/A,,Clear,0,2013-12-26 20:35:00
2:55 PM,52.7,21.4,29,30.31,10.0,Calm,Calm,-,N/A,,Clear,0,2013-12-26 20:55:00
3:15 PM,53.8,20.3,27,30.32,10.0,WNW,3.5,-,N/A,,Clear,300,2013-12-26 21:15:00
3:35 PM,53.6,21.0,28,30.31,10.0,Calm,Calm,-,N/A,,Clear,0,2013-12-26 21:35:00
3:55 PM,53.2,21.9,29,30.31,10.0,Calm,Calm,-,N/A,,Clear,0,2013-12-26 21:55:00
4:15 PM,52.9,23.0,31,30.32,10.0,East,3.5,-,N/A,,Clear,90,2013-12-26 22:15:00
4:35 PM,53.6,21.2,28,30.32,10.0,Calm,Calm,-,N/A,,Clear,0,2013-12-26 22:35:00
4:55 PM,52.3,24.3,34,30.33,10.0,SE,4.6,-,N/A,,Clear,130,2013-12-26 22:55:00
5:15 PM,50.4,25.0,37,30.33,10.0,ESE,5.8,-,N/A,,Clear,120,2013-12-26 23:15:00
5:35 PM,48.4,26.2,42,30.34,10.0,SE,6.9,-,N/A,,Clear,130,2013-12-26 23:35:00
5:55 PM,46.0,26.4,46,30.34,10.0,SE,4.6,-,N/A,,Clear,140,2013-12-26 23:55:00
6:15 PM,45.1,27.0,49,30.34,10.0,Calm,Calm,-,N/A,,Clear,0,2013-12-27 00:15:00
6:35 PM,44.2,26.6,50,30.34,10.0,Calm,Calm,-,N/A,,Clear,0,2013-12-27 00:35:00
6:55 PM,43.7,23.4,45,30.34,10.0,SSE,5.8,-,N/A,,Clear,160,2013-12-27 00:55:00
7:15 PM,41.7,24.8,51,30.35,10.0,South,4.6,-,N/A,,Clear,180,2013-12-27 01:15:00
7:35 PM,42.1,24.1,49,30.35,10.0,SSW,3.5,-,N/A,,Clear,210,2013-12-27 01:35:00
7:55 PM,41.9,23.9,49,30.36,10.0,Calm,Calm,-,N/A,,Clear,0,2013-12-27 01:55:00
8:15 PM,41.9,23.7,49,30.37,10.0,SW,3.5,-,N/A,,Clear,230,2013-12-27 02:15:00
8:35 PM,41.0,23.5,50,30.36,10.0,Calm,Calm,-,N/A,,Clear,0,2013-12-27 02:35:00
8:55 PM,39.7,23.9,53,30.37,10.0,Calm,Calm,-,N/A,,Clear,0,2013-12-27 02:55:00
9:15 PM,37.2,24.6,60,30.37,10.0,Calm,Calm,-,N/A,,Clear,0,2013-12-27 03:15:00
9:35 PM,35.6,25.5,67,30.37,10.0,Calm,Calm,-,N/A,,Clear,0,2013-12-27 03:35:00
9:55 PM,33.6,25.7,73,30.38,10.0,Calm,Calm,-,N/A,,Clear,0,2013-12-27 03:55:00
10:15 PM,35.8,24.6,64,30.37,10.0,Calm,Calm,-,N/A,,Clear,0,2013-12-27 04:15:00
10:35 PM,36.7,24.3,61,30.37,10.0,Calm,Calm,-,N/A,,Clear,0,2013-12-27 04:35:00
10:55 PM,33.8,24.8,70,30.37,10.0,West,3.5,-,N/A,,Clear,260,2013-12-27 04:55:00
11:15 PM,32.0,24.8,75,30.37,10.0,West,4.6,-,N/A,,Clear,270,2013-12-27 05:15:00
11:35 PM,32.4,24.8,74,30.37,10.0,West,3.5,-,N/A,,Clear,280,2013-12-27 05:35:00
11:55 PM,32.9,24.4,71,30.37,10.0,West,3.5,-,N/A,,Clear,280,2013-12-27 05:55:00